Location: Newark
(2.6153°S, 29.9989°E)
Time: 10:41:00
(UTC+00:00)

N. Korean satellite - Pass Details

Date: 29 August 2019
Orbit: 455 x 509 km, 97.2° (Epoch: 18 September)

Event Time Altitude Azimuth Distance (km) Brightness Sun altitude
Rises 03:29:48 0° 13° (NNE) 2,472 10.5 -8.2°
Reaches altitude 10° 03:31:50 10° 14° (NNE) 1,595 9.5 -7.7°
Maximum altitude 03:35:15 79° 100° (E) 469 6.6 -6.8°
Drops below altitude 10° 03:38:40 10° 187° (S) 1,594 9.0 -6.0°
Sets 03:40:42 0° 189° (S) 2,469 10.0 -5.5°
